Track METEOR 1-27 now! 10-day predictions METEOR 1-27 is classified as:
1 09903U 77024A 25187.29259040 -.00000053 00000-0 -37515-4 0 9990 2 09903 81.2742 112.4730 0035702 260.7024 99.0108 14.08677573478850